Terug naar catalogus

FENGYUN 1C DEB

ActiefPO
NORAD 36259·DEBRIS·🇨🇳 China

Gelanceerd May 10, 1999 vanaf Taiyuan Satellite Launch Center

Loading…

Volgende Passages (komende 24 uur)

TLE

VersSource: Space-Track

Epoch: Sep 12, 2026, 20:59 UTC

1 36259U 99025DWL 26255.87442830  .00007303  00000-0  14491-2 0  9990
2 36259  98.7980  41.9572 0004470 169.6654 345.2441 14.62516098761434

Volg FENGYUN 1C DEB in realtime met AllMySat

Download on the App Store